FENGYUN 1C DEB

Satellite information

Favourite Embed

Satellite Type and Status

DEBRISIN ORBIT

Key statistics

Satellite FENGYUN 1C DEB at a glance.

Uptime

9617

Days in orbit

Revolutions

≈ 14.5

Per day

Orbit

SSO

Sun Synchronous Orbit

Inclination

99.1

Latest

Satellite identification and parameters

Extended collection of information and parameters for FENGYUN 1C DEB.

Object identification

Identified? True

Debris? True

Object name: FENGYUN 1C DEB

International designator: 1999-025CLW

Object number (NORAD): 31919

Object ID (CCSDS): 31919

Country: PEOPLES REPUBLIC OF CHINA (PRC)

Current information (Y/N): Y

RCS size: SMALL

Orbital parameters

Period: 99.632 minutes

Inclination: 99.0914 deg

SMA: 7119.109 km

Apoapsis: 814.894 km

Periapsis: 667.053 km

RAAN: 25.0706 deg

Eccentricy: 0.0103834

Argument of periapsis: 135.094 deg

Mean anomaly: 240.9961 deg

Mean motion: 14.45321056 rev/day

Mean motion (dot): 0.00002832 rev/day2

B* drag term: 0.00076856647 1/REarth

Two-line elements (TLE)

Creation date: Sept. 7, 2025, 3:09 a.m.

Reference frame: TEME

Reference center: EARTH

Epoch: Sept. 6, 2025, 2:47 p.m. UTC

TLE line 0: 0 FENGYUN 1C DEB

TLE line 1: 1 31919U 99025CLW 25249.61603807 .00002832 00000-0 76857-3 0 9992

TLE line 2: 2 31919 99.0914 25.0706 0103834 135.0940 240.9961 14.45321056956785

Live tracking on map

Real-time ground track for satellite FENGYUN 1C DEB.

In-orbit conjunctions

A list of the most updated potential collisions computed for object FENGYUN 1C DEB.

Target Orbit TCA Probability of collision Miss distance Type
COSMOS 2251 DEB LEO 2024-10-15 04:52:19 0.0005456143 50.0 (m) DEBRIS
COSMOS 2251 DEB LEO 2024-07-08 15:40:09 0.0002638692 456.0 (m) DEBRIS

Associated space launch

Chinese polar orbiting meteorological satellite

FENGYUN 1C DEB was lifted into orbit during the mission ‘Long March 4B | Feng Yun 1C’, on board a Long March 4B space rocket.

The launch took place on May 10, 1999, 1:33 a.m. from Launch Complex 7.

For more information about the launch, click the button.

Launch to space Long March 4B | Feng Yun 1C
Long March 4B | Feng Yun 1C

Agency: N/A

Status: Launch Successful

Launch date: May 10, 1999, 1:33 a.m. UTC

Rocket: Long March 4B

Launch pad: Launch Complex 7

Location: Taiyuan Satellite Launch Center, People's Republic of China

...

Latest news about this satellite

There are no fresh news available about this satellite. Check back as we update our databases every day.


Newsletter sign-up

Weekly statistics, charts and insights to help you stay on top of the space industry.